星链-36103(STARLINK-36103)

导读

STARLINK-36103是由美国于2025年12月8日发射的星链卫星,隶属于SpaceX星链星座项目。星链项目旨在构建全球卫星互联网星座,为全球提供高速低延迟宽带网络服务,该卫星入轨后将助力星座组网,进一步扩展星链全球覆盖范围,提升服务容量与稳定性。

Basic Information
目录编号:
66985
目录名称:
STARLINK-36103
国际标识:
2025-288AC
轨道中心:
EARTH
卫星名称:
星链-36103
卫星全名:
星链-36103(STARLINK-36103)
卫星状态:
在轨 (已飞行277 天)
发射日期:
2025-12-08 UTC
国别 :
美国 (US)
星等 :
--
This satellite is enrolled in the Space Conjunction Data Service (SCDS) and the current flight risk assessment level is: No High Risk
Orbit Information
数据来源 国际轨道数据
星历时间: 2026-09-11T20:22:42+0800
9小时前
查看轨道信息
半长轴: 6861.172km
偏心率: 0.0002054
轨道倾角: 43.003°
近地点辐角 274.077°
升交点赤经 54.293°
平近点角 85.985°
近地点: 481.625km
远地点: 484.445km
周期: 94.266分钟
每日圈数: 15.27585
Detailed Information
固有亮度:
5
最大亮度:
2.5
卫星平台:
Starlink V1.0
覆盖范围:
全球
运营商:
太空探索技术公司
运营商所在国:
美国
制造商(研发单位):
太空探索技术公司
制造商所在国:
美国
使用方式:
暂无
Satellite Introduction
Starlink 计划是 SpaceX 推出的全球卫星互联网项目,通过发射低轨道卫星,为全球尤其是偏远地区提供高速、低延迟的互联网服务。自 2019 年起,Starlink 已部署数千颗卫星,旨在缩小全球数字鸿沟,推动互联网普及。该项目还为军事、航空等行业提供通信支持,带来广泛经济效益。
2D Orbit Map
3D Orbit Map
Orbit Altitude Analysis Chart
Orbit Inclination Analysis Chart
Orbit Comprehensive Analysis Chart
View Comprehensive Chart
Conjunction Data List
Event ID Objects TCA Miss Dist (km) Collision Risk Probability Collision Risk Index (CRI) Action
CDM_260914-032606-356906-698521
2026-09-14T
03:26:28+0000
1.030 km
极远距离
1.153809E-5 中风险 0.56
CDM_260913-233106-356906-698521
2026-09-13T
23:31:06+0000
1.051 km
极远距离
1.074887E-5 中风险 0.56
CDM_260914-050006-356906-698521
2026-09-14T
05:00:37+0000
1.070 km
极远距离
1.012124E-5 中风险 0.55
CDM_260912-172604-691306-698522
R2 (46913)
2026-09-12T
17:26:42+0000
1.799 km
极远距离
2.908916E-6 低风险 0.44
CDM_260912-135304-380406-698522
SUOMI100 (43804)
2026-09-12T
13:53:28+0000
2.270 km
极远距离
1.815114E-6 低风险 0.4
CDM_260914-010506-356906-698521
2026-09-14T
01:05:15+0000
1.867 km
极远距离
1.74484E-6 低风险 0.4
CDM_260913-215606-356906-698521
2026-09-13T
21:56:57+0000
1.948 km
极远距离
1.56969E-6 低风险 0.39
CDM_260914-015206-356906-698521
2026-09-14T
01:52:19+0000
2.562 km
极远距离
9.05682E-7 极低风险 0.34
CDM_260914-063406-356906-698521
2026-09-14T
06:34:46+0000
2.657 km
极远距离
8.579475E-7 极低风险 0.34
CDM_260913-035805-956806-698521
2026-09-13T
03:58:34+0000
1.950 km
极远距离
7.793787E-7 极低风险 0.33
Miss Distance Evolution Trend with All Objects
Collision Probability Evolution Trend with All Objects